星链-37108(STARLINK-37108)

导读

STARLINK-37108(NORAD编号68218)是美国太空探索技术公司(SpaceX)星链(Starlink)项目的低轨互联网卫星,于2024年12月8日发射升空,截至2026年4月已在轨飞行超480天,目前仍正常运行。 该卫星采用Starlink V1.0平台,轨道倾角43.001°,近地点约355公里、远地点约357公里,轨道周期约91.66分钟,每日绕地球运行约15.7圈,隶属于SpaceX打造的全球低轨卫星互联网星座,为全球提供高速低延迟互联网接入服务。

Basic Information
目录编号:
68218
目录名称:
STARLINK-37108
国际标识:
2026-053M
轨道中心:
EARTH
卫星名称:
星链-37108
卫星全名:
星链-37108(STARLINK-37108)
卫星状态:
在轨 (已飞行180 天)
发射日期:
2026-03-17 UTC
国别 :
美国 (US)
星等 :
--
This satellite is enrolled in the Space Conjunction Data Service (SCDS) and the current flight risk assessment level is: No High Risk
Orbit Information
数据来源 国际轨道数据
星历时间: 2026-09-13T06:28:07+0800
12小时前
查看轨道信息
半长轴: 6843.658km
偏心率: 0.0002251
轨道倾角: 97.284°
近地点辐角 86.219°
升交点赤经 129.813°
平近点角 273.930°
近地点: 463.98km
远地点: 467.062km
周期: 93.906分钟
每日圈数: 15.334526
Detailed Information
固有亮度:
5
最大亮度:
2.5
卫星平台:
Starlink V1.0
覆盖范围:
全球
运营商:
太空探索技术公司
运营商所在国:
美国
制造商(研发单位):
太空探索技术公司
制造商所在国:
美国
使用方式:
暂无
Satellite Introduction
Starlink 计划是 SpaceX 推出的全球卫星互联网项目,通过发射低轨道卫星,为全球尤其是偏远地区提供高速、低延迟的互联网服务。自 2019 年起,Starlink 已部署数千颗卫星,旨在缩小全球数字鸿沟,推动互联网普及。该项目还为军事、航空等行业提供通信支持,带来广泛经济效益。
2D Orbit Map
3D Orbit Map
Orbit Altitude Analysis Chart
Orbit Inclination Analysis Chart
Orbit Comprehensive Analysis Chart
View Comprehensive Chart
Conjunction Data List
Event ID Objects TCA Miss Dist (km) Collision Risk Probability Collision Risk Index (CRI) Action
CDM_260914-074604-299206-821821
2026-09-14T
07:46:58+0000
1.352 km
极远距离
7.831118E-6 低风险 0.53
CDM_260913-141705-228306-821821
2026-09-13T
14:17:38+0000
1.779 km
极远距离
3.867292E-6 低风险 0.47
CDM_260914-125604-856806-821822
2026-09-14T
12:56:44+0000
2.486 km
极远距离
1.760061E-6 低风险 0.4
CDM_260913-040204-867106-821822
2026-09-13T
04:02:07+0000
2.776 km
极远距离
1.474963E-6 低风险 0.38
CDM_260913-181605-081506-821821
2026-09-13T
18:16:39+0000
2.881 km
极远距离
1.222869E-6 低风险 0.37
Miss Distance Evolution Trend with All Objects
Collision Probability Evolution Trend with All Objects